User: anonymous   Login
Location: Unspecified
(0.0000°N, 0.0000°E)
Time: 08:05:23
(UTC+00:00)
Language:

DOVE 2 - Orbit

View from above orbital plane
View from above orbital plane
View from above satellite
View from above satellite

Ground track
Ground track

The orbit data is extracted from the following two-line orbital elements,

1 39132U 13015C   19345.90348645  .00000195  00000-0  24687-4 0  9995
2 39132  64.8783 275.3724 0034752 289.6610  70.0735 15.07424648365286
Epoch (UTC): 11 December 2019 21:41:01
Eccentricity: 0.0034752
inclination: 64.8783°
perigee height: 520 km
apogee height: 568 km
right ascension of ascending node: 275.3724°
argument of perigee: 289.6610°
revolutions per day: 15.07424648
mean anomaly at epoch: 70.0735°
orbit number at epoch: 36528

The dashed part of the orbit path shows where the satellite is in the earth's shadow,  

DLR